Tracking 20040 objects as of 19-Nov-2019
Live streaming from Space Station
objects crossing your sky now

SL-14 DEB

Track SL-14 DEB now!
10-day predictions


NORAD ID: 35400
Int'l Code: 1991-068AW
Perigee: 1,179.9 km
Apogee: 1,472.5 km
Inclination: 82.9 °
Period: 112.0 minutes
Semi major axis: 7697 km
RCS: 0.0033 m2 (small)
Launch date: September 28, 1991
Source: Commonwealth of Independent States (former USSR) (CIS)
Launch site: PLESETSK MISSILE AND SPACE COMPLEX (PKMTR)

Note: This is SATELLITE DEBRIS
aabbcc
Your satellite tracking list
Your tracking list is empty




NASA's NSSDC Master Catalog

Two Line Element Set (TLE):
1 35400U 91068AW  14356.44586833 +.00000037 +00000-0 +10000-3 0  9990
2 35400 082.9237 168.0705 0190062 312.5523 046.1176 12.85584645385336
Source of the keplerian elements: AFSPC